Flag for United Kingdom Weather past 2 weeks in Luton, England, United Kingdom

45 °F

Passing clouds.

Feels Like: 45 °F
Forecast: 54 / 63 °F
Wind: 2 mph from North

Location: Luton Airport

Current Time: Oct 4, 2015 at 7:06:16 AM

Latest Report: Oct 4, 2015 at 6:20 AM

Visibility: 4 mi

Pressure: 29.98 "Hg

Humidity: 93%

Dew point: 43 °F

Location of LutonLocation

Historic Weather in Luton — Graph


Luton temperature yesterday

Maximum temperature yesterday: 59 °F (at 1:50 PM)
Minimum temperature yesterday: 45 °F (at 4:50 AM)
Average temperature yesterday: 52 °F

Past Weeks' High & Low Weather Summary

High64 °F (Sep 20, 2:50 PM)100% (Sep 19, 5:20 AM)30.66 "Hg (Sep 19, 5:20 AM)
Low41 °F (Oct 4, 4:50 AM)42% (Sep 30, 3:50 PM)29.47 "Hg (Sep 22, 7:20 AM)
Average54 °F83%30.21 "Hg
* Reported Sep 19 5:20 AM — Oct 4 5:20 AM, Luton, Weather by CustomWeather, © 2015

Note: Actual official high and low records may vary slightly from our data, if they occured in-between our weather recording intervals... More about our weather records


Luton weather history for previous 24 hours

Time TempWeatherWind HumidityBarometerVisibility
5:20 AM
Sun, Oct 4
43 °FFog.6 mph100%29.98 "Hg3 mi
4:50 AM41 °FFog.5 mph100%29.95 "Hg2 mi
4:20 AM43 °FFog.5 mph93%29.95 "Hg2 mi
3:50 AM43 °FFog.3 mph93%29.95 "Hg2 mi
3:20 AM43 °FFog.6 mph93%29.95 "Hg3 mi
2:50 AM45 °FFog.6 mph93%29.98 "Hg3 mi
2:20 AM45 °FFog.6 mph93%29.95 "Hg3 mi
1:50 AM46 °FFog.6 mph87%29.95 "Hg3 mi
1:20 AM48 °FPassing clouds.8 mph87%29.95 "Hg4 mi
12:50 AM48 °FFog.9 mph94%29.95 "Hg3 mi
12:20 AM48 °FOvercast.6 mph94%29.95 "Hg4 mi
11:50 PM
Sat, Oct 3
48 °FOvercast.3 mph94%29.95 "Hg4 mi
11:20 PM48 °FClear.3 mph94%29.95 "Hg4 mi
10:20 PM50 °FPassing clouds.6 mph88%29.95 "Hg4 mi
9:50 PM52 °FPassing clouds.8 mph88%29.95 "Hg5 mi
9:20 PM52 °FPassing clouds.7 mph88%29.95 "Hg6 mi
8:50 PM52 °FPartly cloudy.7 mph88%29.92 "Hg5 mi
8:20 PM54 °FPassing clouds.6 mph77%29.92 "Hg6 mi
7:50 PM55 °FPassing clouds.5 mph77%29.92 "HgN/A
7:20 PM55 °FPartly sunny.6 mph77%29.92 "Hg6 mi
6:50 PM57 °FOvercast.3 mph67%29.92 "HgN/A
6:20 PM57 °FPartly sunny.3 mph67%29.92 "HgN/A
5:50 PM57 °FPartly sunny.5 mph72%29.92 "HgN/A
5:20 PM57 °FPartly sunny.5 mph72%29.92 "HgN/A
4:50 PM59 °FPartly sunny.3 mph68%29.92 "HgN/A
4:20 PM59 °FPartly sunny.3 mph68%29.92 "HgN/A
3:50 PM59 °FPartly sunny.2 mph72%29.92 "HgN/A
3:20 PM59 °FPartly sunny.5 mph72%29.92 "HgN/A
2:50 PM59 °FPartly sunny.3 mph68%29.92 "HgN/A
2:20 PM57 °FBroken clouds.2 mph77%29.92 "HgN/A
1:50 PM59 °FBroken clouds.No wind72%29.95 "Hg4 mi
1:20 PM57 °FBroken clouds.5 mph82%29.95 "Hg5 mi
12:50 PM57 °FPartly sunny.5 mph82%29.95 "Hg5 mi
12:20 PM57 °FBroken clouds.5 mph88%29.95 "Hg4 mi
11:50 AM55 °FPartly sunny.5 mph88%29.98 "Hg4 mi
11:20 AM54 °FFog.6 mph94%29.98 "Hg3 mi
10:50 AM52 °FFog.6 mph100%29.98 "Hg3 mi
10:20 AM52 °FFog.5 mph100%29.98 "Hg3 mi
9:50 AM50 °FFog.6 mph100%29.98 "Hg2 mi
9:20 AM50 °FFog.5 mph100%29.98 "Hg2 mi
8:50 AM48 °FFog.5 mph100%30.01 "Hg1 mi
8:20 AM48 °FFog.5 mph100%30.01 "Hg1 mi
7:50 AM48 °FFog.5 mph100%30.01 "Hg0 mi
7:20 AM48 °FFog.5 mph100%30.01 "Hg0 mi
Weather by CustomWeather, © 2015

See weather overviewHow to use our weather pages